Location: Batesville
(34.7480°N, 83.6110°W)
Time: 11:18:31
(UTC-04:00)

Envisat - Pass Details

Date: 24 January 2018
Orbit: 764 x 766 km, 98.2° (Epoch: 24 May)

Event Time Altitude Azimuth Distance (km) Brightness Sun altitude
Exits shadow 19:39:19 17° 16° (NNE) 1,891 4.8 -21.3°
Drops below altitude 10° 19:40:32 10° 8° (N) 2,305 5.3 -21.5°
Sets 19:43:01 0° 359° (N) 3,235 6.2 -22.0°
